Flag for Jordan Weather past 2 weeks in Zarqa, Jordan

Now
48 °F

Haze.


Feels Like: 46 °F
Forecast: 40 / 69 °F
Wind: 5 mph from Southwest

Location: Amman Airport

Current Time: Feb 2, 2015 at 2:39:29 AM

Latest Report: Feb 2, 2015 at 2:00 AM


Visibility: 3 mi

Pressure: 30.07 "Hg

Humidity: 50%

Dew point: 30 °F

Location of ZarqaLocation

Historic Weather in Zarqa — Graph

°F

Zarqa temperature yesterday

Maximum temperature yesterday: 66 °F (at 3:00 PM)
Minimum temperature yesterday: 39 °F (at 8:00 AM)
Average temperature yesterday: 51 °F

Past Weeks' High & Low Weather Summary

 TemperatureHumidityPressure
High66 °F (Jan 22, 1:00 PM)93% (Jan 18, 5:00 AM)30.33 "Hg (Jan 18, 5:00 AM)
Low37 °F (Jan 19, 6:00 AM)24% (Jan 22, 4:00 PM)29.86 "Hg (Jan 28, 8:00 AM)
Average51 °F58%30.12 "Hg
* Reported Jan 18 1:00 AM — Feb 2 1:00 AM, Zarqa, Weather by CustomWeather, © 2014

Note: Actual official high and low records may vary slightly from our data, if they occured in-between our weather recording intervals... More about our weather records

Advertising

Zarqa weather history for previous 24 hours

 ConditionsComfort  
Time TempWeatherWind HumidityBarometerVisibility
1:00 AM
Feb 2
48 °FHaze.5 mph46%30.09 "Hg3 mi
12:00 AM48 °FHaze.5 mph46%30.09 "Hg3 mi
11:00 PM
Feb 1
50 °FHaze.5 mph43%30.09 "Hg3 mi
10:00 PM52 °FHaze.No wind44%30.09 "Hg3 mi
9:00 PM52 °FHaze.No wind41%30.12 "Hg3 mi
8:00 PM54 °FHaze.No wind38%30.12 "Hg3 mi
7:00 PM55 °FHaze.No wind36%30.12 "Hg3 mi
6:00 PM57 °FHaze.No wind33%30.12 "Hg3 mi
4:00 PM66 °FHaze.6 mph24%30.09 "Hg3 mi
3:00 PM66 °FHaze.No wind26%30.09 "Hg3 mi
2:00 PM63 °FHaze.6 mph32%30.09 "Hg3 mi
1:00 PM59 °FHaze.6 mph34%30.12 "Hg3 mi
12:00 PM55 °FHaze.6 mph41%30.15 "Hg3 mi
11:00 AM54 °FHaze.6 mph44%30.15 "Hg2 mi
10:00 AM52 °FHaze.No wind44%30.15 "Hg2 mi
9:00 AM48 °FHaze.5 mph46%30.15 "Hg2 mi
8:00 AM39 °FHaze.No wind65%30.15 "Hg2 mi
7:00 AM41 °FClear.No wind57%30.15 "Hg2 mi
6:00 AM41 °FClear.No wind57%30.12 "Hg3 mi
5:00 AM41 °FClear.No wind57%30.12 "Hg3 mi
3:00 AM43 °FClear.No wind53%30.15 "Hg3 mi
2:00 AM43 °FClear.No wind57%30.15 "Hg3 mi
Weather by CustomWeather, © 2014

See weather overviewHow to use our weather pages